This is the latest recevied weather packets stored in our database for station/object VK3AFQ-13. If no packets are shown the sender has not sent any weather packets the latest 10 day(s).
| Time | Temp. | Humidity | Pressure | Rain* | Wind** | Luminosity | Snow |
|---|---|---|---|---|---|---|---|
| 1778205662 | 16.67° C | 72% | 1025 hPa | - | - | - | - |
| 1778204763 | 16.11° C | 73% | 1025.2 hPa | - | - | - | - |
| 1778203864 | 16.11° C | 75% | 1025.4 hPa | - | - | - | - |
| 1778202963 | 15.56° C | 76% | 1025.4 hPa | - | - | - | - |
| 1778202062 | 15.56° C | 76% | 1025.3 hPa | - | - | - | - |
| 1778201163 | 15.56° C | 77% | 1025.5 hPa | - | - | - | - |
| 1778200264 | 15.56° C | 78% | 1025.8 hPa | - | - | - | - |
| 1778199364 | 15° C | 78% | 1025.6 hPa | - | - | - | - |
| 1778198462 | 15° C | 80% | 1025.7 hPa | - | - | - | - |
| 1778197565 | 14.44° C | 82% | 1025.7 hPa | - | - | - | - |
| 1778196664 | 13.89° C | 84% | 1025.9 hPa | - | - | - | - |
| 1778195765 | 13.33° C | 85% | 1025.9 hPa | - | - | - | - |
| 1778194861 | 13.33° C | 86% | 1025.8 hPa | - | - | - | - |
| 1778193964 | 12.78° C | 87% | 1025.7 hPa | - | - | - | - |
| 1778193064 | 12.22° C | 88% | 1025.5 hPa | - | - | - | - |
| 1778192164 | 12.22° C | 89% | 1025.4 hPa | - | - | - | - |
| 1778191262 | 12.22° C | 89% | 1025.2 hPa | - | - | - | - |
| 1778190364 | 11.67° C | 90% | 1025.3 hPa | - | - | - | - |
| 1778189464 | 11.11° C | 90% | 1025.3 hPa | - | - | - | - |
| 1778188564 | 11.11° C | 90% | 1025.1 hPa | - | - | - | - |
| 1778187662 | 11.11° C | 89% | 1025 hPa | - | - | - | - |
| 1778186763 | 11.11° C | 88% | 1024.9 hPa | - | - | - | - |
| 1778185863 | 11.67° C | 88% | 1024.7 hPa | - | - | - | - |
| 1778184963 | 11.67° C | 88% | 1024.7 hPa | - | - | - | - |
| 1778184062 | 11.67° C | 88% | 1024.7 hPa | - | - | - | - |
* Rain since midnight (hover to see other rain measurements)
** Current wind speed in m/s (hover to see current wind gust speed)